Weather History for Nasa Shuttle, FL

Change the Weather History Date:

Tuesday, April 16, 2013

  Actual Average Record
Temperature  
Mean Temperature 75 °F -  
Max Temperature 82 °F 76 °F 89 °F (2011)
Min Temperature 66 °F 58 °F 42 °F (2007)
Cooling Degree Days 10    
Growing Degree Days 25 (Base 50)    
Moisture  
Dew Point 69 °F    
Average Humidity 82    
Maximum Humidity 100    
Minimum Humidity 61    
Precipitation  
Precipitation 0.00 in - - ()
Sea Level Pressure  
Sea Level Pressure 30.37 in    
Wind  
Wind Speed 7 mph (ENE)    
Max Wind Speed 13 mph    
Max Gust Speed 18 mph    
Visibility 10 miles    
Events Rain    
Averages and records for this station are not official NWS values.
T = Trace of Precipitation, MM = Missing Value Source: NWS Daily Summary

Daily Weather History Graph

Daily Weather History Graph

Search for Another Location

Airport:

Trip Planner

Search our weather history database for the weather conditions in past years. The results will help you decide how hot, cold, wet, or windy it might be!

Date:

Astronomy

Apr. 16, 2013 Rise Set
Actual Time 6:55 AM EDT 7:49 PM EDT
Civil Twilight 6:31 AM EDT 8:13 PM EDT
Nautical Twilight 6:03 AM EDT 8:42 PM EDT
Astronomical Twilight 5:33 AM EDT 9:11 PM EDT
Moon 11:25 AM EDT (4/16) 12:32 AM EDT (4/16)
Length of Visible Light 13h 41m
Length of Day
12h 53m
Waxing Crescent, 33% of the Moon is Illuminated
Apr 16
Waxing Crescent
Apr 18
First Quarter
Apr 25
Full
May 2
Last Quarter
May 9
New

Hourly Weather History & Observations

Time (EDT) Temp. Heat Index Dew Point Humidity Pressure Visibility Wind Dir Wind Speed Gust Speed Precip Events Conditions
12:26 AM 69.8 °F - 68.0 °F 94% 30.10 in 10.0 mi NE 4.6 mph - N/A Rain Light Rain
12:27 AM 69.8 °F - 68.0 °F 94% 30.10 in 10.0 mi NE 4.6 mph - N/A   Clear
12:58 AM 70.0 °F - 69.6 °F 99% 30.42 in 10.0 mi NE 5.8 mph - 0.00 in   Clear
1:58 AM 69.3 °F - 69.1 °F 99% 30.41 in 10.0 mi NE 3.5 mph - N/A   Clear
2:43 AM 69.8 °F - 69.8 °F 100% 30.08 in 10.0 mi NNE 5.8 mph - N/A   Mostly Cloudy
2:58 AM 70.2 °F - 69.8 °F 99% 30.40 in 10.0 mi NE 4.6 mph - N/A   Mostly Cloudy
3:33 AM 69.8 °F - 69.8 °F 100% 30.07 in 10.0 mi North 3.5 mph - N/A   Scattered Clouds
3:58 AM 68.9 °F - 68.5 °F 99% 30.40 in 10.0 mi North 4.6 mph - N/A   Clear
4:58 AM 70.2 °F - 69.8 °F 99% 30.40 in 10.0 mi NE 4.6 mph - N/A   Scattered Clouds
5:58 AM 70.7 °F - 70.3 °F 99% 30.42 in 10.0 mi ENE 5.8 mph - N/A   Clear
6:58 AM 70.7 °F - 70.3 °F 99% 30.44 in 10.0 mi NE 5.8 mph - N/A   Clear
7:58 AM 72.5 °F - 72.1 °F 99% 30.46 in 10.0 mi ENE 6.9 mph - N/A   Clear
8:58 AM 75.9 °F - 72.1 °F 88% 30.47 in 10.0 mi East 10.4 mph - N/A   Clear
9:58 AM 78.6 °F - 70.0 °F 75% 30.48 in 10.0 mi East 10.4 mph - N/A   Partly Cloudy
10:58 AM 80.4 °F 83.5 °F 69.3 °F 69% 30.50 in 10.0 mi East 10.4 mph - N/A   Partly Cloudy
11:18 AM 80.6 °F 83.2 °F 68.0 °F 65% 30.17 in 10.0 mi ENE 10.4 mph - N/A   Mostly Cloudy
11:23 AM 80.6 °F 83.9 °F 69.8 °F 70% 30.17 in 10.0 mi ENE 9.2 mph - N/A   Scattered Clouds
11:38 AM 80.6 °F 83.9 °F 69.8 °F 70% 30.18 in 10.0 mi ENE 8.1 mph - N/A   Mostly Cloudy
11:58 AM 81.3 °F 84.6 °F 69.4 °F 67% 30.51 in 10.0 mi East 10.4 mph - N/A   Mostly Cloudy
12:38 PM 82.4 °F 86.3 °F 69.8 °F 66% 30.17 in 10.0 mi NE 10.4 mph - N/A   Scattered Clouds
12:58 PM 81.5 °F 84.6 °F 68.7 °F 65% 30.50 in 10.0 mi NE 12.7 mph 18.4 mph N/A   Partly Cloudy
1:58 PM 81.0 °F 83.9 °F 68.7 °F 66% 30.48 in 10.0 mi ENE 10.4 mph - N/A   Scattered Clouds
2:58 PM 81.3 °F 83.8 °F 67.1 °F 62% 30.48 in 10.0 mi East 10.4 mph - N/A   Partly Cloudy
3:58 PM 80.2 °F 82.5 °F 66.6 °F 63% 30.47 in 10.0 mi East 11.5 mph - N/A   Scattered Clouds
4:03 PM 80.6 °F 82.7 °F 66.2 °F 61% 30.14 in 10.0 mi East 8.1 mph 17.3 mph N/A   Mostly Cloudy
4:43 PM 78.8 °F - 66.2 °F 65% 30.14 in 10.0 mi ENE 10.4 mph - N/A   Mostly Cloudy
4:58 PM 78.3 °F - 66.9 °F 68% 30.47 in 10.0 mi NE 10.4 mph - N/A   Scattered Clouds
5:58 PM 79.0 °F - 67.1 °F 67% 30.47 in 10.0 mi ENE 11.5 mph - N/A   Partly Cloudy
6:58 PM 76.8 °F - 66.6 °F 70% 30.47 in 10.0 mi NE 12.7 mph - N/A   Clear
7:58 PM 73.6 °F - 66.7 °F 79% 30.48 in 10.0 mi NE 9.2 mph - N/A   Clear
8:58 PM 71.4 °F - 66.4 °F 84% 30.49 in 10.0 mi ENE 8.1 mph - N/A   Clear
9:58 PM 69.6 °F - 66.6 °F 90% 30.50 in 10.0 mi ENE 5.8 mph - N/A   Clear
10:58 PM 69.3 °F - 66.9 °F 92% 30.50 in 10.0 mi ENE 4.6 mph - N/A   Clear
11:58 PM 66.9 °F - 65.8 °F 96% 30.49 in 10.0 mi ENE 3.5 mph - N/A   Clear